Durango, CO

2:43 AM MDT on May 28, 2017 (GMT -0600)
Durango-La Plata County

Weather History for KDRO - November, 2013

Change the Weather History Date:

Saturday, November 30, 2013

  Actual Average Record
Temperature  
Mean Temperature 35 °F 30 °F  
Max Temperature 47 °F 43 °F 61 °F (1973)
Min Temperature 23 °F 18 °F 0 °F (2010)
Degree Days  
Heating Degree Days 30 35  
Month to date heating degree days 854 885  
Since 1 July heating degree days 1683 1673  
Cooling Degree Days 0 0  
Month to date cooling degree days 0 0  
Year to date cooling degree days 388 243  
Moisture  
Dew Point 26 °F    
Average Humidity 77    
Maximum Humidity 100    
Minimum Humidity 53    
Precipitation  
Precipitation 0.00 in 0.04 in 1.61 in (1982)
Month to date precipitation 1.48 1.68  
Year to date precipitation 15.58 14.90  
Sea Level Pressure  
Sea Level Pressure 30.37 in    
Wind  
Wind Speed 3 mph (WSW)    
Max Wind Speed 13 mph    
Max Gust Speed 15 mph    
Visibility 8 miles    
Events Fog    
T = Trace of Precipitation, MM = Missing Value Source: NWS Daily Summary

Daily Weather History Graph

Daily Weather History Graph

Search for Another Location

Airport or City:

Trip Planner

Search our weather history database for the weather conditions in past years. The results will help you decide how hot, cold, wet, or windy it might be!

Date:

Astronomy

Nov. 30, 2013 Rise Set
Actual Time 7:05 AM MST 4:54 PM MST
Civil Twilight 6:36 AM MST 5:22 PM MST
Nautical Twilight 6:04 AM MST 5:54 PM MST
Astronomical Twilight 5:33 AM MST 6:26 PM MST
Moon 4:22 AM MST (11/30) 3:17 PM MST (11/30)
Length of Visible Light 10h 45m
Length of Day
9h 48m
Waning Crescent, 7% of the Moon is Illuminated
Nov 30
Waning Crescent
Dec 2
New
Dec 9
First Quarter
Dec 17
Full
Dec 25
Last Quarter

Hourly Weather History & Observations

Time (MST) Temp. Windchill Dew Point Humidity Pressure Visibility Wind Dir Wind Speed Gust Speed Precip Events Conditions
12:53 AM 26.1 °F - 23.0 °F 88% 30.36 in 10.0 mi Calm Calm - N/A   Clear
1:53 AM 26.1 °F - 21.9 °F 84% 30.35 in 10.0 mi Calm Calm - N/A   Clear
2:53 AM 25.0 °F - 23.0 °F 92% 30.38 in 10.0 mi Calm Calm - N/A   Scattered Clouds
3:53 AM 24.1 °F 19.7 °F 21.9 °F 91% 30.38 in 10.0 mi North 3.5 mph - N/A   Partly Cloudy
4:53 AM 24.1 °F - 21.9 °F 91% 30.39 in 10.0 mi Calm Calm - N/A   Partly Cloudy
5:53 AM 24.1 °F - 19.9 °F 84% 30.42 in 10.0 mi Calm Calm - N/A   Clear
6:53 AM 24.1 °F 19.7 °F 21.0 °F 88% 30.45 in 10.0 mi South 3.5 mph - N/A   Clear
7:53 AM 27.0 °F - 24.1 °F 89% 30.46 in 10.0 mi Calm Calm - N/A   Partly Cloudy
8:53 AM 28.9 °F - 25.0 °F 85% 30.46 in 10.0 mi Calm Calm - N/A   Clear
9:53 AM 35.1 °F - 27.0 °F 72% 30.44 in 10.0 mi Calm Calm - N/A   Clear
10:53 AM 39.9 °F - 27.0 °F 60% 30.41 in 10.0 mi Calm Calm - N/A   Clear
11:53 AM 43.0 °F - 27.0 °F 53% 30.35 in 10.0 mi Calm Calm - N/A   Clear
12:53 PM 46.0 °F 43.9 °F 30.0 °F 54% 30.32 in 10.0 mi West 4.6 mph - N/A   Clear
1:53 PM 46.0 °F 41.9 °F 30.0 °F 54% 30.30 in 10.0 mi West 8.1 mph - N/A   Clear
2:53 PM 45.0 °F 39.3 °F 30.9 °F 58% 30.30 in 10.0 mi WSW 11.5 mph - N/A   Clear
3:53 PM 42.1 °F 37.1 °F 30.9 °F 65% 30.32 in 10.0 mi SW 8.1 mph - N/A   Clear
4:53 PM 36.0 °F 31.1 °F 30.0 °F 79% 30.35 in 10.0 mi SW 5.8 mph - N/A   Clear
5:53 PM 33.1 °F 28.7 °F 28.9 °F 85% 30.39 in 10.0 mi West 4.6 mph - N/A   Clear
6:53 PM 32.0 °F 26.4 °F 28.0 °F 85% 30.41 in 10.0 mi North 5.8 mph - N/A   Clear
7:53 PM 30.0 °F - 28.0 °F 92% 30.40 in 10.0 mi Calm Calm - N/A   Clear
8:46 PM 26.6 °F 18.2 °F 26.6 °F 100% 30.31 in 2.0 mi WSW 8.1 mph - N/A   Partly Cloudy
8:48 PM 26.6 °F 19.1 °F 26.6 °F 100% 30.31 in 1.0 mi WSW 6.9 mph - N/A   Mist
8:53 PM 27.0 °F 20.5 °F 27.0 °F 100% 30.42 in 0.5 mi West 5.8 mph - N/A Fog Light Freezing Fog
9:00 PM 26.6 °F 21.2 °F 26.6 °F 100% 30.31 in 0.2 mi WSW 4.6 mph - N/A Fog Light Freezing Fog
9:53 PM 27.0 °F - 27.0 °F 100% 30.39 in 0.2 mi Calm Calm - N/A Fog Light Freezing Fog
10:53 PM 27.0 °F 21.6 °F 27.0 °F 100% 30.37 in 0.2 mi SW 4.6 mph - N/A Fog Light Freezing Fog
11:53 PM 27.0 °F - 27.0 °F 100% 30.37 in 0.2 mi Calm Calm - N/A Fog Light Freezing Fog